| time (UTC) | temp F | wind direction | speed MPH | gust MPH | rain 1hr in | rain 24hr in | rain mn in | humidity % | barometer mb |
| 20260904172503 | 88 | 13 | 7.0 | 12.0 | 0.00 | 0.00 | 0.00 | 33 | 1011.3 |
| 20260904172003 | 88 | 20 | 5.0 | 10.0 | 0.00 | 0.00 | 0.00 | 32 | 1011.4 |
| 20260904171503 | 89 | 15 | 7.0 | 12.0 | 0.00 | 0.00 | 0.00 | 32 | 1011.3 |
| 20260904171003 | 89 | 17 | 7.0 | 15.0 | 0.00 | 0.00 | 0.00 | 31 | 1011.3 |
| 20260904170503 | 89 | 17 | 7.0 | 13.0 | 0.00 | 0.00 | 0.00 | 31 | 1011.3 |
| 20260904170003 | 90 | 18 | 9.0 | 14.0 | 0.00 | 0.00 | 0.00 | 29 | 1011.4 |
| 20260904165503 | 91 | 16 | 7.0 | 12.0 | 0.00 | 0.00 | 0.00 | 29 | 1011.2 |
| 20260904165003 | 91 | 17 | 9.0 | 15.0 | 0.00 | 0.00 | 0.00 | 28 | 1011.1 |
| 20260904164503 | 92 | 16 | 8.0 | 13.0 | 0.00 | 0.00 | 0.00 | 28 | 1011.1 |
| 20260904164004 | 92 | 18 | 9.0 | 16.0 | 0.00 | 0.00 | 0.00 | 28 | 1010.9 |
| 20260904163503 | 92 | 18 | 11.0 | 17.0 | 0.00 | 0.00 | 0.00 | 28 | 1010.9 |
| 20260904163003 | 93 | 17 | 12.0 | 17.0 | 0.00 | 0.00 | 0.00 | 28 | 1010.9 |
| 20260904162503 | 93 | 19 | 10.0 | 17.0 | 0.00 | 0.00 | 0.00 | 27 | 1010.9 |
| 20260904162003 | 94 | 17 | 10.0 | 15.0 | 0.00 | 0.00 | 0.00 | 27 | 1011.1 |
| 20260904161503 | 94 | 14 | 9.0 | 15.0 | 0.00 | 0.00 | 0.00 | 28 | 1011.0 |
| 20260904161003 | 94 | 9 | 9.0 | 15.0 | 0.00 | 0.00 | 0.00 | 27 | 1010.9 |
| 20260904160503 | 94 | 8 | 9.0 | 17.0 | 0.00 | 0.00 | 0.00 | 27 | 1010.9 |
| 20260904160003 | 95 | 8 | 8.0 | 14.0 | 0.00 | 0.00 | 0.00 | 27 | 1010.9 |
| 20260904155503 | 95 | 15 | 10.0 | 16.0 | 0.00 | 0.00 | 0.00 | 27 | 1010.8 |
| 20260904155003 | 95 | 21 | 9.0 | 14.0 | 0.00 | 0.00 | 0.00 | 27 | 1010.8 |
| 20260904154503 | 95 | 4 | 9.0 | 16.0 | 0.00 | 0.00 | 0.00 | 27 | 1010.9 |
| 20260904154003 | 96 | 4 | 9.0 | 14.0 | 0.00 | 0.00 | 0.00 | 27 | 1010.9 |
| 20260904153503 | 96 | 6 | 10.0 | 17.0 | 0.00 | 0.00 | 0.00 | 26 | 1010.9 |
| 20260904153003 | 96 | 5 | 8.0 | 14.0 | 0.00 | 0.00 | 0.00 | 27 | 1010.9 |
| 20260904152503 | 96 | 18 | 10.0 | 18.0 | 0.00 | 0.00 | 0.00 | 27 | 1010.9 |
| 20260904152003 | 96 | 13 | 11.0 | 17.0 | 0.00 | 0.00 | 0.00 | 27 | 1010.9 |
| 20260904151503 | 96 | 2 | 8.0 | 12.0 | 0.00 | 0.00 | 0.00 | 27 | 1011.0 |
| 20260904151003 | 96 | 1 | 9.0 | 13.0 | 0.00 | 0.00 | 0.00 | 26 | 1010.9 |
| 20260904150503 | 96 | 2 | 8.0 | 16.0 | 0.00 | 0.00 | 0.00 | 26 | 1010.9 |
| 20260904150004 | 96 | 356 | 9.0 | 14.0 | 0.00 | 0.00 | 0.00 | 27 | 1010.8 |
| 20260904145503 | 97 | 344 | 8.0 | 13.0 | 0.00 | 0.00 | 0.00 | 26 | 1010.9 |
| 20260904145003 | 98 | 348 | 7.0 | 16.0 | 0.00 | 0.00 | 0.00 | 26 | 1010.7 |
| 20260904144503 | 98 | 358 | 7.0 | 15.0 | 0.00 | 0.00 | 0.00 | 26 | 1010.7 |
| 20260904144003 | 98 | 5 | 7.0 | 13.0 | 0.00 | 0.00 | 0.00 | 26 | 1010.6 |
| 20260904143503 | 98 | 3 | 8.0 | 15.0 | 0.00 | 0.00 | 0.00 | 26 | 1010.8 |
| 20260904143003 | 97 | 3 | 9.0 | 14.0 | 0.00 | 0.00 | 0.00 | 27 | 1010.6 |
| 20260904142503 | 98 | 25 | 10.0 | 19.0 | 0.00 | 0.00 | 0.00 | 27 | 1010.7 |
| 20260904142003 | 98 | 9 | 9.0 | 17.0 | 0.00 | 0.00 | 0.00 | 27 | 1010.7 |
| 20260904141503 | 98 | 9 | 10.0 | 17.0 | 0.00 | 0.00 | 0.00 | 27 | 1010.5 |
| 20260904141003 | 98 | 8 | 10.0 | 20.0 | 0.00 | 0.00 | 0.00 | 27 | 1010.6 |
| 20260904140503 | 98 | 14 | 10.0 | 15.0 | 0.00 | 0.00 | 0.00 | 27 | 1010.6 |
| 20260904140003 | 99 | 8 | 8.0 | 17.0 | 0.00 | 0.00 | 0.00 | 27 | 1010.9 |
| 20260904135503 | 98 | 18 | 9.0 | 18.0 | 0.00 | 0.00 | 0.00 | 28 | 1010.6 |
| 20260904135003 | 99 | 20 | 10.0 | 18.0 | 0.00 | 0.00 | 0.00 | 27 | 1010.7 |
| 20260904134503 | 99 | 2 | 7.0 | 12.0 | 0.00 | 0.00 | 0.00 | 28 | 1010.7 |
| 20260904134003 | 99 | 4 | 7.0 | 13.0 | 0.00 | 0.00 | 0.00 | 28 | 1010.6 |
| 20260904133503 | 99 | 2 | 8.0 | 16.0 | 0.00 | 0.00 | 0.00 | 28 | 1010.8 |
| 20260904133003 | 99 | 18 | 8.0 | 16.0 | 0.00 | 0.00 | 0.00 | 28 | 1010.9 |
| 20260904132503 | 99 | 12 | 8.0 | 16.0 | 0.00 | 0.00 | 0.00 | 28 | 1010.9 |
| 20260904132003 | 100 | 25 | 7.0 | 18.0 | 0.00 | 0.00 | 0.00 | 28 | 1010.8 |
| 20260904131503 | 99 | 23 | 5.0 | 11.0 | 0.00 | 0.00 | 0.00 | 29 | 1011.1 |
| 20260904131003 | 99 | 12 | 9.0 | 16.0 | 0.00 | 0.00 | 0.00 | 29 | 1011.0 |
| 20260904130503 | 98 | 16 | 8.0 | 14.0 | 0.00 | 0.00 | 0.00 | 29 | 1011.1 |
| 20260904130003 | 98 | 13 | 10.0 | 15.0 | 0.00 | 0.00 | 0.00 | 29 | 1011.0 |
| 20260904125503 | 98 | 19 | 8.0 | 14.0 | 0.00 | 0.00 | 0.00 | 29 | 1011.0 |
| 20260904125003 | 99 | 9 | 8.0 | 14.0 | 0.00 | 0.00 | 0.00 | 29 | 1011.0 |
| 20260904124503 | 99 | 7 | 8.0 | 14.0 | 0.00 | 0.00 | 0.00 | 29 | 1011.1 |
| 20260904124003 | 98 | 13 | 10.0 | 16.0 | 0.00 | 0.00 | 0.00 | 28 | 1011.2 |
| 20260904123503 | 98 | 39 | 7.0 | 13.0 | 0.00 | 0.00 | 0.00 | 29 | 1011.1 |
| 20260904123003 | 98 | 31 | 9.0 | 14.0 | 0.00 | 0.00 | 0.00 | 28 | 1011.3 |
| 20260904122503 | 98 | 35 | 8.0 | 17.0 | 0.00 | 0.00 | 0.00 | 29 | 1011.2 |
| 20260904122003 | 99 | 24 | 7.0 | 13.0 | 0.00 | 0.00 | 0.00 | 27 | 1011.0 |
| 20260904121503 | 99 | 23 | 9.0 | 18.0 | 0.00 | 0.00 | 0.00 | 28 | 1011.1 |
| 20260904121003 | 99 | 14 | 11.0 | 16.0 | 0.00 | 0.00 | 0.00 | 28 | 1011.2 |
| 20260904120503 | 99 | 18 | 9.0 | 17.0 | 0.00 | 0.00 | 0.00 | 29 | 1011.2 |
| 20260904120003 | 99 | 21 | 8.0 | 13.0 | 0.00 | 0.00 | 0.00 | 29 | 1011.2 |
| 20260904115503 | 98 | 16 | 8.0 | 14.0 | 0.00 | 0.00 | 0.00 | 29 | 1011.3 |
| 20260904115003 | 98 | 32 | 9.0 | 17.0 | 0.00 | 0.00 | 0.00 | 29 | 1011.2 |
| 20260904114503 | 98 | 35 | 9.0 | 17.0 | 0.00 | 0.00 | 0.00 | 29 | 1011.4 |
| 20260904114003 | 98 | 16 | 8.0 | 14.0 | 0.00 | 0.00 | 0.00 | 29 | 1011.4 |
| 20260904113503 | 98 | 7 | 9.0 | 17.0 | 0.00 | 0.00 | 0.00 | 29 | 1011.4 |
| 20260904113003 | 98 | 356 | 5.0 | 11.0 | 0.00 | 0.00 | 0.00 | 29 | 1011.3 |
| 20260904112503 | 99 | 1 | 8.0 | 17.0 | 0.00 | 0.00 | 0.00 | 28 | 1011.4 |
| 20260904112003 | 99 | 3 | 6.0 | 11.0 | 0.00 | 0.00 | 0.00 | 28 | 1011.5 |
| 20260904111503 | 100 | 5 | 4.0 | 9.0 | 0.00 | 0.00 | 0.00 | 29 | 1011.5 |
| 20260904111003 | 99 | 13 | 3.0 | 11.0 | 0.00 | 0.00 | 0.00 | 29 | 1011.4 |
| 20260904110503 | 98 | 8 | 6.0 | 15.0 | 0.00 | 0.00 | 0.00 | 29 | 1011.4 |
| 20260904110003 | 97 | 32 | 8.0 | 14.0 | 0.00 | 0.00 | 0.00 | 30 | 1011.3 |
| 20260904105503 | 97 | 352 | 6.0 | 11.0 | 0.00 | 0.00 | 0.00 | 30 | 1011.4 |
| 20260904105003 | 97 | 334 | 6.0 | 12.0 | 0.00 | 0.00 | 0.00 | 30 | 1011.3 |
| 20260904104503 | 97 | 359 | 6.0 | 10.0 | 0.00 | 0.00 | 0.00 | 30 | 1011.4 |
| 20260904104003 | 98 | 341 | 5.0 | 10.0 | 0.00 | 0.00 | 0.00 | 30 | 1011.5 |
| 20260904103503 | 97 | 4 | 5.0 | 10.0 | 0.00 | 0.00 | 0.00 | 30 | 1011.6 |
| 20260904103003 | 98 | 356 | 6.0 | 11.0 | 0.00 | 0.00 | 0.00 | 30 | 1011.5 |
| 20260904102503 | 98 | 4 | 8.0 | 13.0 | 0.00 | 0.00 | 0.00 | 31 | 1011.4 |
| 20260904102003 | 98 | 358 | 8.0 | 14.0 | 0.00 | 0.00 | 0.00 | 32 | 1011.5 |
| 20260904101503 | 97 | 28 | 6.0 | 13.0 | 0.00 | 0.00 | 0.00 | 32 | 1011.6 |
| 20260904101003 | 97 | 10 | 6.0 | 12.0 | 0.00 | 0.00 | 0.00 | 32 | 1011.6 |
| 20260904100503 | 97 | 21 | 7.0 | 14.0 | 0.00 | 0.00 | 0.00 | 33 | 1011.7 |
| 20260904100003 | 96 | 19 | 7.0 | 18.0 | 0.00 | 0.00 | 0.00 | 34 | 1011.5 |
| 20260904095503 | 96 | 348 | 7.0 | 13.0 | 0.00 | 0.00 | 0.00 | 34 | 1011.6 |
| 20260904095003 | 96 | 354 | 5.0 | 9.0 | 0.00 | 0.00 | 0.00 | 34 | 1011.6 |
| 20260904094503 | 95 | 359 | 8.0 | 11.0 | 0.00 | 0.00 | 0.00 | 35 | 1011.5 |
| 20260904094003 | 95 | 15 | 8.0 | 18.0 | 0.00 | 0.00 | 0.00 | 37 | 1011.7 |
| 20260904093503 | 95 | 33 | 7.0 | 12.0 | 0.00 | 0.00 | 0.00 | 37 | 1011.5 |
| 20260904093003 | 96 | 10 | 6.0 | 11.0 | 0.00 | 0.00 | 0.00 | 38 | 1011.6 |
| 20260904092503 | 95 | 15 | 6.0 | 11.0 | 0.00 | 0.00 | 0.00 | 40 | 1011.6 |
| 20260904092003 | 96 | 10 | 6.0 | 10.0 | 0.00 | 0.00 | 0.00 | 39 | 1011.6 |
| 20260904091504 | 95 | 13 | 4.0 | 8.0 | 0.00 | 0.00 | 0.00 | 40 | 1011.7 |
| 20260904091003 | 94 | 20 | 5.0 | 9.0 | 0.00 | 0.00 | 0.00 | 42 | 1011.7 |
| 20260904090503 | 94 | 22 | 6.0 | 12.0 | 0.00 | 0.00 | 0.00 | 43 | 1011.8 |
| 20260904090003 | 93 | 13 | 8.0 | 15.0 | 0.00 | 0.00 | 0.00 | 43 | 1011.7 |
| 20260904085503 | 93 | 13 | 7.0 | 14.0 | 0.00 | 0.00 | 0.00 | 45 | 1011.8 |
| 20260904085003 | 92 | 360 | 5.0 | 10.0 | 0.00 | 0.00 | 0.00 | 46 | 1011.7 |
| 20260904084503 | 93 | 340 | 5.0 | 11.0 | 0.00 | 0.00 | 0.00 | 46 | 1011.8 |
| 20260904084003 | 92 | 23 | 5.0 | 11.0 | 0.00 | 0.00 | 0.00 | 47 | 1011.7 |
| 20260904083503 | 92 | 20 | 6.0 | 13.0 | 0.00 | 0.00 | 0.00 | 48 | 1011.6 |
| 20260904083003 | 92 | 6 | 5.0 | 11.0 | 0.00 | 0.00 | 0.00 | 48 | 1011.7 |
| 20260904082503 | 91 | 7 | 4.0 | 9.0 | 0.00 | 0.00 | 0.00 | 49 | 1011.7 |
| 20260904082003 | 91 | 5 | 6.0 | 11.0 | 0.00 | 0.00 | 0.00 | 49 | 1011.6 |
| 20260904081503 | 90 | 7 | 7.0 | 12.0 | 0.00 | 0.00 | 0.00 | 50 | 1011.7 |
| 20260904081003 | 90 | 360 | 6.0 | 12.0 | 0.00 | 0.00 | 0.00 | 50 | 1011.6 |
| 20260904080003 | 89 | 352 | 6.0 | 13.0 | 0.00 | 0.00 | 0.00 | 52 | 1011.6 |
| 20260904075503 | 89 | 360 | 7.0 | 14.0 | 0.00 | 0.00 | 0.00 | 53 | 1011.6 |
| 20260904075003 | 89 | 347 | 6.0 | 10.0 | 0.00 | 0.00 | 0.00 | 53 | 1011.7 |
| 20260904074503 | 88 | 343 | 6.0 | 14.0 | 0.00 | 0.00 | 0.00 | 53 | 1011.3 |
| 20260904074003 | 88 | 347 | 4.0 | 11.0 | 0.00 | 0.00 | 0.00 | 55 | 1011.4 |
| 20260904073503 | 87 | 331 | 4.0 | 9.0 | 0.00 | 0.00 | 0.00 | 56 | 1011.3 |
| 20260904073003 | 87 | 332 | 4.0 | 11.0 | 0.00 | 0.00 | 0.00 | 56 | 1011.3 |
| 20260904072503 | 87 | 345 | 4.0 | 7.0 | 0.00 | 0.00 | 0.00 | 57 | 1011.3 |
| 20260904072003 | 85 | 9 | 2.0 | 4.0 | 0.00 | 0.00 | 0.00 | 59 | 1011.2 |
| 20260904071503 | 85 | 227 | 2.0 | 6.0 | 0.00 | 0.00 | 0.00 | 60 | 1011.2 |
| 20260904071003 | 85 | 251 | 2.0 | 4.0 | 0.00 | 0.00 | 0.00 | 60 | 1011.1 |
| 20260904070503 | 84 | 221 | 3.0 | 7.0 | 0.00 | 0.00 | 0.00 | 60 | 1011.1 |
| 20260904070003 | 84 | 242 | 1.0 | 4.0 | 0.00 | 0.00 | 0.00 | 60 | 1011.2 |
| 20260904065503 | 83 | 214 | 3.0 | 7.0 | 0.00 | 0.00 | 0.00 | 60 | 1011.1 |
| 20260904065003 | 83 | 214 | 3.0 | 5.0 | 0.00 | 0.00 | 0.00 | 60 | 1010.9 |
| 20260904064503 | 83 | 211 | 3.0 | 5.0 | 0.00 | 0.00 | 0.00 | 60 | 1011.1 |
| 20260904064003 | 83 | 207 | 3.0 | 5.0 | 0.00 | 0.00 | 0.00 | 60 | 1011.0 |
| 20260904063503 | 83 | 210 | 2.0 | 5.0 | 0.00 | 0.00 | 0.00 | 60 | 1011.0 |
| 20260904063003 | 83 | 245 | 1.0 | 4.0 | 0.00 | 0.00 | 0.00 | 60 | 1011.1 |
| 20260904062503 | 82 | 275 | 1.0 | 4.0 | 0.00 | 0.00 | 0.00 | 60 | 1011.2 |
| 20260904062003 | 82 | 318 | 2.0 | 6.0 | 0.00 | 0.00 | 0.00 | 60 | 1011.2 |
| 20260904061503 | 82 | 301 | 2.0 | 4.0 | 0.00 | 0.00 | 0.00 | 60 | 1011.1 |
| 20260904061003 | 81 | 293 | 1.0 | 4.0 | 0.00 | 0.00 | 0.00 | 61 | 1011.1 |
| 20260904060503 | 80 | 268 | 2.0 | 5.0 | 0.00 | 0.00 | 0.00 | 61 | 1011.1 |
| 20260904060003 | 80 | 252 | 3.0 | 6.0 | 0.00 | 0.00 | 0.00 | 61 | 1011.2 |
| 20260904055503 | 80 | 251 | 3.0 | 8.0 | 0.00 | 0.00 | 0.00 | 62 | 1011.1 |
| 20260904055003 | 80 | 264 | 3.0 | 8.0 | 0.00 | 0.00 | 0.00 | 62 | 1011.0 |
| 20260904054503 | 80 | 258 | 3.0 | 7.0 | 0.00 | 0.00 | 0.00 | 62 | 1010.9 |
| 20260904054003 | 79 | 244 | 2.0 | 5.0 | 0.00 | 0.00 | 0.00 | 62 | 1010.8 |
| 20260904053504 | 79 | 254 | 3.0 | 8.0 | 0.00 | 0.00 | 0.00 | 62 | 1010.9 |
| 20260904053003 | 79 | 266 | 3.0 | 9.0 | 0.00 | 0.00 | 0.00 | 62 | 1010.7 |
| 20260904052503 | 79 | 268 | 4.0 | 11.0 | 0.00 | 0.00 | 0.00 | 62 | 1010.8 |
| 20260904052003 | 79 | 263 | 4.0 | 9.0 | 0.00 | 0.00 | 0.00 | 63 | 1010.7 |
| 20260904051503 | 78 | 262 | 4.0 | 9.0 | 0.00 | 0.00 | 0.00 | 63 | 1010.6 |
| 20260904051003 | 78 | 252 | 5.0 | 9.0 | 0.00 | 0.00 | 0.00 | 63 | 1010.5 |
| 20260904050503 | 78 | 253 | 4.0 | 10.0 | 0.00 | 0.00 | 0.00 | 64 | 1010.5 |
| 20260904050003 | 78 | 239 | 4.0 | 9.0 | 0.00 | 0.00 | 0.00 | 64 | 1010.4 |
| 20260904045503 | 78 | 235 | 4.0 | 8.0 | 0.00 | 0.00 | 0.00 | 63 | 1010.6 |
| 20260904045003 | 78 | 233 | 4.0 | 9.0 | 0.00 | 0.00 | 0.00 | 63 | 1010.5 |
| 20260904044503 | 78 | 225 | 3.0 | 7.0 | 0.00 | 0.00 | 0.00 | 63 | 1010.4 |
| 20260904044003 | 78 | 223 | 2.0 | 4.0 | 0.00 | 0.00 | 0.00 | 62 | 1010.2 |
| 20260904043003 | 79 | 252 | 2.0 | 3.0 | 0.00 | 0.00 | 0.00 | 61 | 1010.3 |
| 20260904042503 | 79 | 267 | 1.0 | 3.0 | 0.00 | 0.00 | 0.00 | 61 | 1010.2 |
| 20260904042003 | 79 | 276 | 2.0 | 4.0 | 0.00 | 0.00 | 0.00 | 61 | 1010.2 |
| 20260904041503 | 79 | 279 | 3.0 | 6.0 | 0.00 | 0.00 | 0.00 | 60 | 1010.2 |
| 20260904041003 | 79 | 283 | 3.0 | 9.0 | 0.00 | 0.00 | 0.00 | 60 | 1010.3 |
| 20260904040503 | 79 | 269 | 4.0 | 8.0 | 0.00 | 0.00 | 0.00 | 60 | 1010.1 |
| 20260904040003 | 79 | 274 | 4.0 | 7.0 | 0.00 | 0.00 | 0.00 | 60 | 1010.0 |
| 20260904035503 | 79 | 302 | 3.0 | 10.0 | 0.00 | 0.00 | 0.00 | 60 | 1009.9 |
| 20260904035003 | 79 | 300 | 3.0 | 6.0 | 0.00 | 0.00 | 0.00 | 59 | 1009.8 |
| 20260904034503 | 79 | 320 | 3.0 | 7.0 | 0.00 | 0.00 | 0.00 | 59 | 1009.9 |
| 20260904034003 | 79 | 328 | 5.0 | 11.0 | 0.00 | 0.00 | 0.00 | 59 | 1009.9 |
| 20260904033503 | 79 | 319 | 5.0 | 11.0 | 0.00 | 0.00 | 0.00 | 59 | 1009.9 |
| 20260904033003 | 79 | 320 | 4.0 | 8.0 | 0.00 | 0.00 | 0.00 | 59 | 1009.9 |
| 20260904032503 | 79 | 319 | 5.0 | 11.0 | 0.00 | 0.00 | 0.00 | 60 | 1009.9 |
| 20260904032003 | 79 | 338 | 4.0 | 7.0 | 0.00 | 0.00 | 0.00 | 59 | 1010.0 |
| 20260904031503 | 79 | 326 | 3.0 | 8.0 | 0.00 | 0.00 | 0.00 | 59 | 1010.1 |
| 20260904031003 | 79 | 330 | 3.0 | 7.0 | 0.00 | 0.00 | 0.00 | 59 | 1010.2 |
| 20260904030503 | 79 | 324 | 4.0 | 8.0 | 0.00 | 0.00 | 0.00 | 58 | 1010.0 |
| 20260904030003 | 79 | 286 | 3.0 | 7.0 | 0.00 | 0.00 | 0.00 | 58 | 1010.0 |
| 20260904025503 | 79 | 279 | 3.0 | 6.0 | 0.00 | 0.00 | 0.00 | 58 | 1010.1 |
| 20260904025003 | 79 | 283 | 4.0 | 7.0 | 0.00 | 0.00 | 0.00 | 58 | 1010.1 |
| 20260904024503 | 79 | 280 | 3.0 | 5.0 | 0.00 | 0.00 | 0.00 | 58 | 1010.1 |
| 20260904024003 | 79 | 286 | 3.0 | 6.0 | 0.00 | 0.00 | 0.00 | 58 | 1010.1 |
| 20260904023504 | 79 | 269 | 3.0 | 8.0 | 0.00 | 0.00 | 0.00 | 58 | 1010.1 |
| 20260904023003 | 79 | 269 | 4.0 | 8.0 | 0.00 | 0.00 | 0.00 | 58 | 1010.0 |
| 20260904022503 | 79 | 264 | 4.0 | 7.0 | 0.00 | 0.00 | 0.00 | 58 | 1010.0 |
| 20260904022003 | 79 | 268 | 4.0 | 8.0 | 0.00 | 0.00 | 0.00 | 57 | 1010.2 |
| 20260904021503 | 79 | 259 | 4.0 | 6.0 | 0.00 | 0.00 | 0.00 | 58 | 1010.2 |
| 20260904021003 | 79 | 269 | 3.0 | 6.0 | 0.00 | 0.00 | 0.00 | 58 | 1010.2 |
| 20260904020503 | 79 | 247 | 4.0 | 8.0 | 0.00 | 0.00 | 0.00 | 58 | 1010.0 |
| 20260904020003 | 79 | 262 | 4.0 | 8.0 | 0.00 | 0.00 | 0.00 | 58 | 1010.0 |
| 20260904015503 | 79 | 256 | 3.0 | 6.0 | 0.00 | 0.00 | 0.00 | 58 | 1010.1 |
| 20260904015003 | 79 | 259 | 3.0 | 9.0 | 0.00 | 0.00 | 0.00 | 58 | 1010.0 |
| 20260904014503 | 79 | 270 | 3.0 | 7.0 | 0.00 | 0.00 | 0.00 | 58 | 1010.0 |
| 20260904014003 | 80 | 266 | 4.0 | 10.0 | 0.00 | 0.00 | 0.00 | 58 | 1010.1 |
| 20260904013503 | 80 | 278 | 4.0 | 10.0 | 0.00 | 0.00 | 0.00 | 58 | 1010.3 |
| 20260904013003 | 80 | 276 | 4.0 | 8.0 | 0.00 | 0.00 | 0.00 | 58 | 1010.2 |
| 20260904012503 | 79 | 273 | 3.0 | 8.0 | 0.00 | 0.00 | 0.00 | 58 | 1010.0 |
| 20260904012003 | 79 | 269 | 4.0 | 7.0 | 0.00 | 0.00 | 0.00 | 59 | 1010.0 |
| 20260904011503 | 79 | 272 | 5.0 | 10.0 | 0.00 | 0.00 | 0.00 | 59 | 1010.0 |
| 20260904011003 | 79 | 269 | 4.0 | 9.0 | 0.00 | 0.00 | 0.00 | 60 | 1010.0 |
| 20260904010503 | 79 | 274 | 4.0 | 7.0 | 0.00 | 0.00 | 0.00 | 60 | 1009.9 |
| 20260904010004 | 80 | 254 | 4.0 | 7.0 | 0.00 | 0.00 | 0.00 | 60 | 1009.9 |
| 20260904005503 | 80 | 262 | 4.0 | 10.0 | 0.00 | 0.00 | 0.00 | 59 | 1009.9 |
| 20260904005003 | 80 | 275 | 3.0 | 8.0 | 0.00 | 0.00 | 0.00 | 59 | 1009.8 |
| 20260904004503 | 80 | 264 | 4.0 | 10.0 | 0.00 | 0.00 | 0.00 | 59 | 1009.9 |
| 20260904004003 | 80 | 261 | 4.0 | 7.0 | 0.00 | 0.00 | 0.00 | 59 | 1009.9 |
| 20260904003503 | 80 | 262 | 3.0 | 9.0 | 0.00 | 0.00 | 0.00 | 60 | 1010.0 |
| 20260904003003 | 80 | 268 | 4.0 | 8.0 | 0.00 | 0.00 | 0.00 | 60 | 1010.0 |
| 20260904002503 | 80 | 263 | 4.0 | 11.0 | 0.00 | 0.00 | 0.00 | 60 | 1010.0 |
| 20260904002003 | 80 | 273 | 4.0 | 7.0 | 0.00 | 0.00 | 0.00 | 60 | 1009.9 |
| 20260904001503 | 80 | 287 | 3.0 | 7.0 | 0.00 | 0.00 | 0.00 | 60 | 1009.9 |
| 20260904001003 | 80 | 287 | 4.0 | 9.0 | 0.00 | 0.00 | 0.00 | 60 | 1009.9 |
| 20260904000503 | 80 | 297 | 3.0 | 7.0 | 0.00 | 0.00 | 0.00 | 61 | 1009.9 |
| 20260904000003 | 80 | 321 | 4.0 | 11.0 | 0.00 | 0.00 | 0.00 | 61 | 1010.0 |
| 20260903235503 | 80 | 328 | 4.0 | 10.0 | 0.00 | 0.00 | 0.00 | 61 | 1009.8 |
| 20260903235003 | 80 | 300 | 3.0 | 8.0 | 0.00 | 0.00 | 0.00 | 61 | 1009.9 |
| 20260903234503 | 80 | 290 | 3.0 | 8.0 | 0.00 | 0.00 | 0.00 | 60 | 1009.8 |
| 20260903234003 | 80 | 297 | 3.0 | 6.0 | 0.00 | 0.00 | 0.00 | 59 | 1009.9 |
| 20260903233503 | 80 | 266 | 3.0 | 6.0 | 0.00 | 0.00 | 0.00 | 59 | 1009.9 |
| 20260903233003 | 80 | 274 | 3.0 | 8.0 | 0.00 | 0.00 | 0.00 | 59 | 1009.7 |
| 20260903232503 | 80 | 275 | 3.0 | 6.0 | 0.00 | 0.00 | 0.00 | 58 | 1009.8 |
| 20260903232003 | 80 | 271 | 4.0 | 7.0 | 0.00 | 0.00 | 0.00 | 58 | 1010.0 |
| 20260903231503 | 80 | 277 | 3.0 | 9.0 | 0.00 | 0.00 | 0.00 | 58 | 1010.0 |
| 20260903231003 | 81 | 275 | 4.0 | 7.0 | 0.00 | 0.00 | 0.00 | 58 | 1009.9 |
| 20260903230503 | 81 | 272 | 3.0 | 6.0 | 0.00 | 0.00 | 0.00 | 57 | 1009.9 |
| 20260903230003 | 81 | 280 | 4.0 | 8.0 | 0.00 | 0.00 | 0.00 | 57 | 1010.1 |
| 20260903225503 | 81 | 284 | 4.0 | 9.0 | 0.00 | 0.00 | 0.00 | 57 | 1009.9 |
| 20260903225003 | 81 | 312 | 4.0 | 8.0 | 0.00 | 0.00 | 0.00 | 57 | 1009.9 |
| 20260903224503 | 81 | 316 | 5.0 | 10.0 | 0.00 | 0.00 | 0.00 | 57 | 1009.9 |
| 20260903224003 | 81 | 326 | 5.0 | 13.0 | 0.00 | 0.00 | 0.00 | 57 | 1010.0 |
| 20260903223503 | 81 | 325 | 6.0 | 14.0 | 0.00 | 0.00 | 0.00 | 57 | 1010.1 |
| 20260903223003 | 81 | 326 | 4.0 | 10.0 | 0.00 | 0.00 | 0.00 | 57 | 1010.1 |
| 20260903222503 | 81 | 328 | 5.0 | 9.0 | 0.00 | 0.00 | 0.00 | 57 | 1010.1 |
| 20260903222003 | 81 | 326 | 5.0 | 10.0 | 0.00 | 0.00 | 0.00 | 57 | 1010.0 |
| 20260903221503 | 81 | 331 | 5.0 | 14.0 | 0.00 | 0.00 | 0.00 | 57 | 1010.0 |
| 20260903221003 | 81 | 320 | 5.0 | 16.0 | 0.00 | 0.00 | 0.00 | 58 | 1010.0 |
| 20260903220503 | 82 | 285 | 4.0 | 9.0 | 0.00 | 0.00 | 0.00 | 57 | 1010.1 |
| 20260903220003 | 82 | 276 | 4.0 | 9.0 | 0.00 | 0.00 | 0.00 | 57 | 1010.1 |
| 20260903215503 | 82 | 273 | 5.0 | 10.0 | 0.00 | 0.00 | 0.00 | 57 | 1010.0 |
| 20260903215003 | 82 | 266 | 4.0 | 9.0 | 0.00 | 0.00 | 0.00 | 56 | 1010.0 |
| 20260903214503 | 82 | 259 | 4.0 | 7.0 | 0.00 | 0.00 | 0.00 | 56 | 1010.1 |
| 20260903214003 | 82 | 268 | 3.0 | 7.0 | 0.00 | 0.00 | 0.00 | 56 | 1010.2 |
| 20260903213503 | 82 | 265 | 4.0 | 9.0 | 0.00 | 0.00 | 0.00 | 56 | 1010.0 |
| 20260903213003 | 82 | 279 | 3.0 | 8.0 | 0.00 | 0.00 | 0.00 | 57 | 1010.0 |
| 20260903212503 | 82 | 293 | 3.0 | 8.0 | 0.00 | 0.00 | 0.00 | 56 | 1010.3 |
| 20260903212003 | 82 | 323 | 5.0 | 10.0 | 0.00 | 0.00 | 0.00 | 56 | 1010.3 |
| 20260903211503 | 82 | 324 | 5.0 | 9.0 | 0.00 | 0.00 | 0.00 | 57 | 1010.2 |
| 20260903211003 | 82 | 329 | 6.0 | 13.0 | 0.00 | 0.00 | 0.00 | 57 | 1010.2 |
| 20260903210503 | 82 | 337 | 8.0 | 13.0 | 0.00 | 0.00 | 0.00 | 58 | 1010.3 |
| 20260903210003 | 82 | 329 | 6.0 | 12.0 | 0.00 | 0.00 | 0.00 | 59 | 1010.2 |
| 20260903205503 | 82 | 342 | 6.0 | 12.0 | 0.00 | 0.00 | 0.00 | 59 | 1010.2 |
| 20260903205003 | 82 | 324 | 6.0 | 14.0 | 0.00 | 0.00 | 0.00 | 59 | 1010.3 |
| 20260903204503 | 82 | 345 | 6.0 | 13.0 | 0.00 | 0.00 | 0.00 | 58 | 1010.4 |
| 20260903204003 | 82 | 330 | 6.0 | 15.0 | 0.00 | 0.00 | 0.00 | 58 | 1010.3 |
| 20260903203503 | 82 | 328 | 5.0 | 10.0 | 0.00 | 0.00 | 0.00 | 57 | 1010.2 |
| 20260903203003 | 82 | 332 | 4.0 | 8.0 | 0.00 | 0.00 | 0.00 | 57 | 1010.2 |
| 20260903202503 | 82 | 335 | 4.0 | 10.0 | 0.00 | 0.00 | 0.00 | 57 | 1010.1 |
| 20260903202003 | 82 | 313 | 3.0 | 9.0 | 0.00 | 0.00 | 0.00 | 56 | 1010.1 |
| 20260903201503 | 82 | 333 | 4.0 | 9.0 | 0.00 | 0.00 | 0.00 | 56 | 1010.2 |
| 20260903201003 | 82 | 329 | 4.0 | 8.0 | 0.00 | 0.00 | 0.00 | 56 | 1010.2 |
| 20260903200503 | 82 | 347 | 5.0 | 15.0 | 0.00 | 0.00 | 0.00 | 56 | 1010.1 |
| 20260903200003 | 82 | 335 | 5.0 | 10.0 | 0.00 | 0.00 | 0.00 | 55 | 1010.0 |
| 20260903195503 | 82 | 328 | 3.0 | 9.0 | 0.00 | 0.00 | 0.00 | 55 | 1010.0 |
| 20260903195003 | 82 | 333 | 4.0 | 11.0 | 0.00 | 0.00 | 0.00 | 54 | 1010.1 |
| 20260903194503 | 82 | 321 | 4.0 | 8.0 | 0.00 | 0.00 | 0.00 | 54 | 1010.0 |
| 20260903194003 | 82 | 340 | 3.0 | 8.0 | 0.00 | 0.00 | 0.00 | 53 | 1009.9 |
| 20260903193503 | 82 | 317 | 3.0 | 6.0 | 0.00 | 0.00 | 0.00 | 53 | 1009.9 |
| 20260903193003 | 82 | 337 | 2.0 | 5.0 | 0.00 | 0.00 | 0.00 | 53 | 1010.0 |
| 20260903192503 | 82 | 335 | 4.0 | 8.0 | 0.00 | 0.00 | 0.00 | 52 | 1009.8 |
| 20260903192003 | 82 | 340 | 5.0 | 8.0 | 0.00 | 0.00 | 0.00 | 52 | 1009.9 |
| 20260903191503 | 83 | 349 | 5.0 | 12.0 | 0.00 | 0.00 | 0.00 | 51 | 1009.6 |
| 20260903191003 | 83 | 4 | 4.0 | 8.0 | 0.00 | 0.00 | 0.00 | 51 | 1009.6 |
| 20260903190503 | 83 | 6 | 6.0 | 11.0 | 0.00 | 0.00 | 0.00 | 50 | 1009.9 |
| 20260903190003 | 83 | 2 | 6.0 | 11.0 | 0.00 | 0.00 | 0.00 | 50 | 1009.7 |
| 20260903185503 | 83 | 12 | 6.0 | 10.0 | 0.00 | 0.00 | 0.00 | 49 | 1009.7 |
| 20260903185003 | 83 | 4 | 7.0 | 12.0 | 0.00 | 0.00 | 0.00 | 49 | 1009.6 |
| 20260903184503 | 84 | 7 | 7.0 | 11.0 | 0.00 | 0.00 | 0.00 | 49 | 1009.6 |
| 20260903184003 | 84 | 8 | 6.0 | 11.0 | 0.00 | 0.00 | 0.00 | 48 | 1009.6 |
| 20260903183503 | 84 | 9 | 8.0 | 15.0 | 0.00 | 0.00 | 0.00 | 48 | 1009.6 |
| 20260903183003 | 84 | 355 | 6.0 | 15.0 | 0.00 | 0.00 | 0.00 | 48 | 1009.5 |
| 20260903182503 | 84 | 9 | 7.0 | 11.0 | 0.00 | 0.00 | 0.00 | 47 | 1009.5 |
| 20260903182004 | 85 | 6 | 6.0 | 11.0 | 0.00 | 0.00 | 0.00 | 47 | 1009.4 |
| 20260903181503 | 85 | 12 | 6.0 | 12.0 | 0.00 | 0.00 | 0.00 | 46 | 1009.4 |
| 20260903181003 | 85 | 13 | 6.0 | 11.0 | 0.00 | 0.00 | 0.00 | 46 | 1009.3 |
| 20260903180503 | 86 | 11 | 6.0 | 11.0 | 0.00 | 0.00 | 0.00 | 45 | 1009.3 |
| 20260903180003 | 86 | 359 | 8.0 | 14.0 | 0.00 | 0.00 | 0.00 | 45 | 1009.3 |
| 20260903175503 | 86 | 360 | 7.0 | 13.0 | 0.00 | 0.00 | 0.00 | 44 | 1009.2 |
| 20260903175003 | 86 | 358 | 8.0 | 15.0 | 0.00 | 0.00 | 0.00 | 44 | 1009.3 |
| 20260903174503 | 87 | 1 | 9.0 | 17.0 | 0.00 | 0.00 | 0.00 | 43 | 1009.3 |
| 20260903174003 | 87 | 352 | 10.0 | 17.0 | 0.00 | 0.00 | 0.00 | 43 | 1009.2 |
| 20260903173503 | 87 | 3 | 9.0 | 19.0 | 0.00 | 0.00 | 0.00 | 43 | 1009.1 |
| 20260903173003 | 87 | 9 | 8.0 | 14.0 | 0.00 | 0.00 | 0.00 | 42 | 1009.2 |